TimeEDT,TemperatureF,Dew PointF,Humidity,Sea Level PressureIn,VisibilityMPH,Wind Direction,Wind SpeedMPH,Gust SpeedMPH,PrecipitationIn,Events,Conditions,WindDirDegrees,DateUTC
12:54 AM,41.0,39.0,93,30.32,2.5,Calm,Calm,-,N/A,,Clear,0,2013-10-10 04:54:00
12:58 AM,39.2,39.2,100,30.34,0.8,Calm,Calm,-,N/A,,Clear,0,2013-10-10 04:58:00
1:06 AM,39.2,39.2,100,30.34,2.0,Calm,Calm,-,N/A,,Clear,0,2013-10-10 05:06:00
1:13 AM,39.2,37.4,93,30.34,4.0,Calm,Calm,-,N/A,,Clear,0,2013-10-10 05:13:00
1:54 AM,41.0,39.0,93,30.32,10.0,ENE,4.6,-,N/A,,Clear,60,2013-10-10 05:54:00
2:54 AM,39.0,37.9,96,30.30,7.0,Calm,Calm,-,N/A,,Clear,0,2013-10-10 06:54:00
3:54 AM,39.0,37.9,96,30.28,8.0,NE,4.6,-,N/A,,Clear,50,2013-10-10 07:54:00
4:54 AM,39.9,39.0,97,30.27,10.0,Calm,Calm,-,N/A,,Clear,0,2013-10-10 08:54:00
5:54 AM,39.0,37.9,96,30.28,10.0,Calm,Calm,-,N/A,,Clear,0,2013-10-10 09:54:00
6:54 AM,39.9,37.0,89,30.30,10.0,Calm,Calm,-,N/A,,Clear,0,2013-10-10 10:54:00
7:28 AM,37.4,37.4,100,30.30,1.8,Calm,Calm,-,N/A,,Clear,0,2013-10-10 11:28:00
7:39 AM,37.4,37.4,100,30.30,4.0,Calm,Calm,-,N/A,,Clear,0,2013-10-10 11:39:00
7:54 AM,37.9,37.0,97,30.30,5.0,Calm,Calm,-,N/A,,Clear,0,2013-10-10 11:54:00
8:54 AM,41.0,39.9,96,30.30,10.0,Calm,Calm,-,N/A,,Clear,0,2013-10-10 12:54:00
9:54 AM,44.1,42.1,93,30.30,10.0,NE,3.5,-,N/A,,Clear,40,2013-10-10 13:54:00
10:54 AM,50.0,43.0,77,30.27,10.0,Calm,Calm,-,N/A,,Clear,0,2013-10-10 14:54:00
11:54 AM,54.0,41.0,62,30.26,10.0,Calm,Calm,-,N/A,,Clear,0,2013-10-10 15:54:00
12:54 PM,55.9,37.9,51,30.24,10.0,Calm,Calm,-,N/A,,Clear,0,2013-10-10 16:54:00
1:54 PM,55.9,37.0,49,30.23,10.0,East,3.5,-,N/A,,Clear,90,2013-10-10 17:54:00
2:54 PM,57.0,37.9,49,30.22,10.0,Variable,3.5,-,N/A,,Partly Cloudy,0,2013-10-10 18:54:00
3:54 PM,55.9,34.0,44,30.19,10.0,East,3.5,-,N/A,,Clear,80,2013-10-10 19:54:00
4:54 PM,55.9,39.0,53,30.19,10.0,North,3.5,-,N/A,,Clear,10,2013-10-10 20:54:00
5:54 PM,53.1,41.0,64,30.18,10.0,Calm,Calm,-,N/A,,Clear,0,2013-10-10 21:54:00
6:54 PM,51.1,41.0,68,30.19,10.0,Calm,Calm,-,N/A,,Clear,0,2013-10-10 22:54:00
7:54 PM,50.0,37.9,63,30.19,10.0,Calm,Calm,-,N/A,,Clear,0,2013-10-10 23:54:00
8:54 PM,52.0,35.1,53,30.18,10.0,Variable,3.5,-,N/A,,Clear,0,2013-10-11 00:54:00
9:54 PM,52.0,37.0,57,30.18,10.0,ENE,5.8,-,N/A,,Clear,70,2013-10-11 01:54:00
10:54 PM,52.0,37.9,59,30.16,10.0,Variable,3.5,-,N/A,,Clear,0,2013-10-11 02:54:00
11:54 PM,48.9,39.0,69,30.15,10.0,Calm,Calm,-,N/A,,Clear,0,2013-10-11 03:54:00